Regional Weather Roundup
Issued by NWS

Home | Current Version | Previous Version | Text Only | Print | Product List | Glossary Off
Versions: 1 2 3 4 5 6 7 8 9 10 11 12 13 14 15 16 17 18 19 20 21 22 23 24 25 26 27 28 29 30 31 32 33 34 35 36 37 38 39 40 41 42 43 44 45 46 47 48

000
ASUS45 KBOU 012107
RWRCO

WEATHER ROUNDUP FOR COLORADO
NATIONAL WEATHER SERVICE DENVER/BOULDER CO
200 PM MST SUN MAR 01 2015

NOTE: "FAIR" INDICATES FEW OR NO CLOUDS BELOW 12000 FEET WITH NO
SIGNIFICANT WEATHER AND/OR OBSTRUCTIONS TO VISIBILITY.

COZ001>005-013-030-031-012200-
...NORTHWEST COLORADO...

CITY           SKY/WX    TMP DP  RH WIND       PRES   REMARKS
CRAIG          PTSUNNY   29  21  72 SW3       30.11F
HAYDEN         PTSUNNY   28  19  69 CALM      30.09F
MEEKER         CLOUDY    32  25  75 CALM      30.07F
MOUNT WERNER   NOT AVBL
STEAMBOAT SPGS CLOUDY    30  21  69 CALM      30.08S
WALDEN         PTSUNNY   28  18  64 S3        30.05F
$$

COZ006>008-011-012200-
...WEST CENTRAL VALLEYS...

CITY           SKY/WX    TMP DP  RH WIND       PRES   REMARKS
GRAND JUNCTION CLOUDY    44  31  60 VRB5      30.07F
MONTROSE       CLOUDY    39  30  70 NW7       30.07F
EAGLE          CLOUDY    41  19  42 SW9G25    30.08S
RIFLE          CLOUDY    43  22  43 CALM      30.06F
DELTA          CLOUDY    46  30  53 N3        30.07F
NUCLA          CLOUDY    37  30  75 W6        30.10F
$$

COZ017>023-064>068-012200-
...SOUTHWEST COLORADO...

CITY           SKY/WX    TMP DP  RH WIND       PRES   REMARKS
DURANGO        LGT RAIN  36  32  85 E3        30.08F
CORTEZ         LGT RAIN  38  35  89 CALM      30.06F
PAGOSA SPRINGS LGT SNOW  36  34  92 CALM      30.10S VSB 1
TELLURIDE      LGT SNOW  34  27  75 CALM      30.06F
WOLF CREEK PAS SNOW      21  21 100 SW18G32   30.11F VSB<1/4 WCI   6
$$

COZ009-010-012-014-032>034-037-058>063-012200-
...CENTRAL COLORADO...

CITY           SKY/WX    TMP DP  RH WIND       PRES   REMARKS
ASPEN          CLOUDY    34  21  59 NW3       30.06S
BUENA VISTA    CLOUDY    36  22  56 W5        30.05F
COPPER MTN     LGT SNOW  23  12  63 W16       30.06F WCI  10
BERTHOUD PASS  LGT SNOW  14   9  79 W13       30.06S WCI   0
COTTONWOOD PAS CLOUDY    32  21  64 CALM      30.07F
GUNNISON       CLOUDY    32  19  59 N9        30.11F WCI  24
KREMMLING      CLOUDY    36  23  60 SE3       30.06S
LEADVILLE      LGT SNOW  25  18  74 NW3       30.05F
SALIDA         CLOUDY    41  25  52 S12       30.12F
SUNLIGHT       LGT SNOW  27  23  86 CALM      30.04F VSB 3/4
WILKERSON PASS CLOUDY    27  19  74 SW6       30.10S WCI  20
$$

COZ069>075-012200-
...SAN LUIS VALLEY/SANGRE DE CRISTO MOUNTAINS...

CITY           SKY/WX    TMP DP  RH WIND       PRES   REMARKS
ALAMOSA        CLOUDY    36  26  67 VRB5      30.08F
LA VETA PASS   CLOUDY    32  28  86 S14G24    30.10S WCI  22
SAGUACHE       CLOUDY    34  27  75 SE6       30.09F WCI  29
$$

COZ035-036-038>040-012200-
...NORTHERN COLORADO FRONT RANGE...

CITY           SKY/WX    TMP DP  RH WIND       PRES   REMARKS
DENVER INTL AP CLOUDY    25  15  66 CALM      30.22S
DMNS CITY PARK   N/A     27  15  61 NE3       30.21S
AURORA         PTSUNNY   24  16  69 E5        30.21F WCI  19
FRONT RANGE AP PTSUNNY   27  18  69 CALM      30.22S
ERIE MUNI ARPT CLOUDY    26  17  66 CALM      30.23S
BOULDER MUN AP CLOUDY    27  19  74 CALM      30.22S
CENTENNIAL     PTSUNNY   25  14  63 CALM      30.18F
BROOMFIELD     CLOUDY    25  16  68 CALM      30.21S
FORT COLLINS   CLOUDY    25  14  63 CALM      30.25S
LONGMONT       CLOUDY    34  18  52 CALM      30.25S
$$

COZ041-046-047-076>085-087-088-012200-
...PIKES PEAK/PALMER DIVIDE AND SOUTHERN FOOTHILLS...

CITY           SKY/WX    TMP DP  RH WIND       PRES   REMARKS
COLO. SPRINGS  PTSUNNY   28  17  63 E6        30.16F FOG     WCI  22
A. F. ACADEMY  PTSUNNY   27  15  61 S6        30.14S WCI  20
ELLICOTT       NOT AVBL
FALCON         PTSUNNY   28  16  60 E8        30.16S WCI  20
FORT CARSON    CLOUDY    25  17  69 S3        30.17S
LIMON          PTSUNNY   24  15  68 N8        30.20F WCI  15
MONUMENT HILL  PTSUNNY   25  14  63 N3        30.13S
TRINIDAD       CLOUDY    25  19  78 E5        30.17S WCI  19
$$

COZ042>045-048>051-090-091-012200-
...NORTHEAST COLORADO...

CITY           SKY/WX    TMP DP  RH WIND       PRES   REMARKS
GREELEY ARPT   CLOUDY    28  14  54 CALM      30.23F
AKRON          MOSUNNY   31  15  52 N7        30.22F WCI  24
BURLINGTON     MOSUNNY   31  18  58 NE12      30.24S WCI  22
WRAY           SUNNY     37  14  39 N7        30.26F
STERLING       SUNNY     34  18  51 N7        30.24F WCI  28
HOLYOKE        NOT AVBL
FORT MORGAN    PTSUNNY   31  15  51 N3        30.24F
$$

COZ086-089-092>099-012200-
...SOUTHEAST COLORADO...

CITY           SKY/WX    TMP DP  RH WIND       PRES   REMARKS
PUEBLO         CLOUDY    27  18  69 SE3       30.23S
LA JUNTA       CLOUDY    30  19  63 E7        30.25F WCI  23
LAMAR          CLOUDY    30  20  66 E5        30.25F WCI  25
SPRINGFIELD      N/A     28  19  69 N7        30.22F WCI  21
$$



USA.gov is the U.S. government's official web portal to all federal, state and local government web resources and services.